カタログに戻る

STARLINK-6054

運用中通信VLEO
NORAD 56465·PAYLOAD·🇺🇸 United States

打ち上げ May 10, 2023 から Vandenberg Space Force Base

Loading…

次のパス (今後24時間)

TLE

最新Source: CelesTrak SupGP

元期: Sep 15, 2026, 02:14 UTC

1 56465C 23064T   26258.09354167  .00066716  00000+0  55893-2 0  2584
2 56465  70.0017 346.7456 0003598 265.7220 198.0307 14.98308090    18

AllMySatでSTARLINK-6054をリアルタイム追跡

Download on the App Store